TimeEDT,TemperatureF,Dew PointF,Humidity,Sea Level PressureIn,VisibilityMPH,Wind Direction,Wind SpeedMPH,Gust SpeedMPH,PrecipitationIn,Events,Conditions,WindDirDegrees,DateUTC
12:53 AM,69.1,64.9,87,29.90,10.0,East,6.9,-,N/A,,Partly Cloudy,100,2013-07-22 04:53:00
1:53 AM,69.1,64.0,84,29.90,10.0,ESE,4.6,-,N/A,,Clear,110,2013-07-22 05:53:00
2:53 AM,68.0,63.0,84,29.89,10.0,SE,8.1,-,N/A,,Scattered Clouds,140,2013-07-22 06:53:00
3:53 AM,68.0,63.0,84,29.87,10.0,SE,6.9,-,N/A,,Clear,130,2013-07-22 07:53:00
4:53 AM,68.0,63.0,84,29.86,10.0,SE,6.9,-,N/A,,Clear,130,2013-07-22 08:53:00
5:53 AM,66.9,63.0,87,29.86,10.0,SSE,6.9,-,N/A,,Partly Cloudy,150,2013-07-22 09:53:00
6:53 AM,68.0,64.0,87,29.86,10.0,SSE,5.8,-,N/A,,Scattered Clouds,150,2013-07-22 10:53:00
7:53 AM,69.1,64.9,87,29.86,10.0,SSE,5.8,-,N/A,,Clear,150,2013-07-22 11:53:00
8:53 AM,71.1,66.0,84,29.86,10.0,SSE,8.1,-,N/A,,Clear,160,2013-07-22 12:53:00
9:53 AM,75.0,66.9,76,29.86,10.0,South,6.9,-,N/A,,Partly Cloudy,180,2013-07-22 13:53:00
10:53 AM,78.1,66.9,68,29.87,10.0,South,5.8,-,N/A,,Clear,190,2013-07-22 14:53:00
11:53 AM,80.1,66.0,62,29.86,10.0,SSW,6.9,-,N/A,,Partly Cloudy,200,2013-07-22 15:53:00
12:53 PM,82.0,66.0,58,29.85,10.0,South,6.9,-,N/A,,Scattered Clouds,190,2013-07-22 16:53:00
1:53 PM,84.0,64.9,53,29.84,10.0,SE,8.1,-,N/A,,Clear,140,2013-07-22 17:53:00
2:53 PM,84.9,64.9,51,29.83,10.0,South,9.2,-,N/A,,Scattered Clouds,180,2013-07-22 18:53:00
3:53 PM,82.9,66.9,58,29.81,10.0,SW,8.1,-,N/A,,Mostly Cloudy,230,2013-07-22 19:53:00
4:53 PM,84.0,68.0,58,29.79,10.0,West,9.2,-,N/A,,Partly Cloudy,260,2013-07-22 20:53:00
5:53 PM,84.0,68.0,58,29.78,10.0,WSW,8.1,-,N/A,,Clear,240,2013-07-22 21:53:00
6:53 PM,82.9,66.9,58,29.76,10.0,SSW,8.1,-,N/A,,Clear,210,2013-07-22 22:53:00
7:53 PM,82.0,66.9,60,29.75,10.0,SSW,6.9,-,N/A,,Clear,200,2013-07-22 23:53:00
8:53 PM,79.0,68.0,69,29.77,10.0,SSW,3.5,-,N/A,,Clear,210,2013-07-23 00:53:00
9:53 PM,73.0,68.0,84,29.75,10.0,South,3.5,-,N/A,,Clear,170,2013-07-23 01:53:00
10:53 PM,75.9,69.1,79,29.77,10.0,South,3.5,-,N/A,,Mostly Cloudy,180,2013-07-23 02:53:00
11:53 PM,73.9,68.0,82,29.75,10.0,SSE,5.8,-,N/A,,Clear,160,2013-07-23 03:53:00